Location: Three Oaks Observatory
(31.1535°N, 83.5955°W)
Time: 02:06:23
(UTC-05:00)

NO-84 - Pass Details

Date: 27 October 2019
Orbit: 330 x 505 km, 55.0° (Epoch: 13 November)

Event Time Altitude Azimuth Distance (km) Brightness Sun altitude
Rises 19:44:26 0° 200° (SSW) 2,251 ? -12.2°
Reaches altitude 10° 19:46:32 10° 189° (S) 1,434 ? -12.6°
Maximum altitude 19:49:26 32° 124° (SE) 740 ? -13.2°
Enters shadow 19:50:32 25° 87° (E) 889 ? -13.5°
